FENGYUN 1C DEB, 31229

Orbit data source: Space-Track

FENGYUN 1C DEB, 31229 is space debris in SSO originally from a launch on Mon, 10 May 1999 UTC launched from the Taiyaun Space Center, China (TSC). Fengyun 1C debris stems from the Chinese weather satellite Fengyun-1C, which was intentionally destroyed by a Chinese anti-satellite missile in 2007. This event dramatically increased the amount of space debris, with thousands of trackable fragments posing hazards to satellites and human spaceflight. The Fengyun 1C debris cloud has become a focal point in discussions about space sustainability and the need for international regulations to prevent the creation of new debris.

Loading next visibility...
Identifier
31229, 1999-025BLK
Orbit
SSO
Country
Flag of CNCN / PRC
Related business
Manufacturer
Unknown
Mission
Spacecraft
Bus & Motor
Unknown
Mass
Unknown
Launch date (UTC)
1999-05-10 (27 years ago)
Launch vehicle
Unknown
Launch site
Taiyaun Space Center, China (TSC)
Object type
Payload
Rocket body
Debris
Shape & HBR
Unknown shape, 0.1 m
Radar Cross Section
Medium (>0.1 m² and <1 m²)

Expand to show TLE details & history
Last TLE update: 13 hours ago

TLE from 13 hours ago
0 FENGYUN 1C DEB
1 31229U 99025BLK 26177.64124739  .00002736  00000-0  12144-2 0  9993
2 31229  98.8575 259.0022 0054811  97.2249 263.5164 14.23045675988697
Epoch: 2026-06-26T15:23Z
TLE epoch observation values (Epoch: 2026-06-26T15:23:23.774Z)
Latitude
-0.00003°
Longitude
113.38631°
Altitude
822.651 km
Speed
7.439 km/s
True Right ascension
17h 16m 00s
True Declination
0° 00' 00"
Sunlit
Object was in full shadow at epoch
Visualization orbit readout
Latitude
Unknown
Longitude
Unknown
Altitude
Unknown
Speed
Unknown
Apparent Right ascension
Unknown
Apparent Declination
Unknown
Sunlit
N/A
Visualization observer readout
Local Sidereal Time
16:00:56
Azimuth
Unknown
Elevation
Unknown
Doppler factor
Unknown
Orbital elements
Apogee altitude
851.644 km
Perigee altitude
772.821 km
Semi-major axis
7,190.369 km
Eccentricity
0.00548
Inclination
98.8575°
RAAN
259.0022°
Arg. of periapsis
97.2249°
True anomaly
262.89282°
Mean anomaly
263.5164°
Eccentric anomaly
263.20456°
Mean motion
3.55972 °/min
Orbital period
101.13 mins
BSTAR
0.0012144
Loading maneuver chart data...
Computing Atmospheric mass density...

Documentation

Showing up to 5 results
|